Showing default

YAOGAN-30 E, 43029

Orbit data source: Space-Track

YAOGAN-30 E, 43029 is a payload satellite owned by PLA SSF (CN) in LEO that was launched on Fri, 24 Nov 2017 UTC via a CHANG ZHENG 2C launch vehicle from the Xichang Space Center, China (XSC). Payload-class satellites include a variety of spacecraft equipped with specific instruments for various scientific and technological missions. These include communications satellites like Starlink; space stations such as the ISS; scientific satellites like the Hubble; Earth observation satellites from companies like Planet Labs, Umbra, and HawkEye 360; GPS; miniature CubeSats for education and research; and military/defense satellites.

Loading next visibility...
Identifier
43029, 2017-075B
Orbit
LEO
Country
Flag of CNCN / PRC
Related business
Manufacturer
SECM
Mission
Operational Defense Sigint
Bus & Motor
Unknown
Mass
~500 kg wet, ~500 kg dry
Launch date (UTC)
2017-11-24 (8 years ago)
Launch vehicle
CHANG ZHENG 2C
Launch site
Xichang Space Center, China (XSC)
Object type
Payload
Rocket body
Debris
Shape & HBR
Box + 2 Pan, 0.5 m
Radar Cross Section
0.446 m², Large (>1 m²)

Expand to show TLE details & history
Last TLE update: 6 hours ago

TLE from 6 hours ago
0 YAOGAN-30 E
1 43029U 17075B   25261.97224199  .00002936  00000-0  22972-3 0  9992
2 43029  34.9930 121.0544 0003605   6.2624 353.8128 15.00646699426568
Epoch: 2025-09-18T23:20Z
TLE epoch observation values (Epoch: 2025-09-18T23:20:01.707Z)
Latitude
-0.00004°
Longitude
132.92106°
Altitude
561.33 km
Speed
7.584 km/s
True Right ascension
08h 04m 13s
True Declination
0° 00' 00"
Sunlit
Object was in daylight at epoch
Visualization orbit readout
Latitude
Unknown
Longitude
Unknown
Altitude
Unknown
Speed
Unknown
Apparent Right ascension
Unknown
Apparent Declination
Unknown
Sunlit
N/A
Visualization observer readout
Local Sidereal Time
22:26:08
Azimuth
Unknown
Elevation
Unknown
Doppler factor
Unknown
Orbital elements
Apogee altitude
570.624 km
Perigee altitude
565.616 km
Semi-major axis
6,946.257 km
Eccentricity
0.00036
Inclination
34.993°
RAAN
121.0544°
Arg. of periapsis
6.2624°
True anomaly
353.80835°
Mean anomaly
353.8128°
Eccentric anomaly
353.81057°
Mean motion
3.74901 °/min
Orbital period
96.03 mins
BSTAR
0.00022972
Loading maneuver chart data...
Computing Atmospheric mass density...
Loading historical data...
Loading historical data...
Loading historical data...
Loading historical data...
Loading historical data...
Loading historical data...
Loading historical data...
Other satellites on launch #75 in the year 2017 (2017-11-24 UTC)

Documentation

Showing up to 5 results
|